Regional Weather Roundup
Issued by NWS

Home | Current Version | Previous Version | Text Only | Print | Product List | Glossary On
Versions: 1 2 3 4 5 6 7 8 9 10 11 12 13 14 15 16 17 18 19 20 21 22 23 24 25 26 27 28 29 30 31 32 33 34 35 36 37 38 39 40 41 42 43 44 45 46 47 48 49 50
948
ASUS43 KMKX 221421
RWRWI

WISCONSIN REGIONAL WEATHER ROUNDUP
NATIONAL WEATHER SERVICE MILWAUKEE/SULLIVAN WI
900 AM CDT FRI MAY 22 2015

NOTE: "FAIR" INDICATES FEW OR NO CLOUDS BELOW 12,000 FEET WITH NO
SIGNIFICANT WEATHER AND/OR OBSTRUCTIONS TO VISIBILITY.

WIZ001-002-006>008-014>016-023>028-221500-
NORTHWEST WISCONSIN

CITY           SKY/WX    TMP DP  RH WIND       PRES   REMARKS
SUPERIOR ARPT  SUNNY     49  36  60 NE5       30.24R
ASHLAND        SUNNY     54  37  52 CALM      30.23R
HAYWARD        SUNNY     56  31  38 SW3       30.22R
SIREN          SUNNY     57  34  41 CALM      30.22S
CUMBERLAND     SUNNY     55  32  41 CALM      30.23R
RICE LAKE      SUNNY     56  33  41 SE3       30.23S
CHETEK         SUNNY     55  36  49 CALM      30.22S
LADYSMITH      SUNNY     54  39  56 CALM      30.23R
EAU CLAIRE       N/A     57  36  45 NE6       30.21R
MENOMONIE      SUNNY     56  38  50 NE3       30.21R
NEW RICHMOND   SUNNY     58  35  41 CALM      30.21S
OSCEOLA        SUNNY     57  42  57 CALM      30.24S
$$

WIZ003>005-009-010-017-018-221500-
NORTH CENTRAL WISCONSIN

CITY           SKY/WX    TMP DP  RH WIND       PRES   REMARKS
MANITOWISH WTR SUNNY     52  34  49 CALM      30.21R
ARBOR VITAE    SUNNY     54  33  44 NW3       30.20S
WOODRUFF       SUNNY     54  33  44 NW3       30.20S
RHINELANDER    SUNNY     54  33  45 W6        30.21R
EAGLE RIVER    SUNNY     52  29  41 SW6       30.20S
LAND O LAKES   SUNNY     53  27  36 W3        30.21R
PHILLIPS       SUNNY     53  38  58 CALM      30.21S
TOMAHAWK       SUNNY     52  35  51 CALM      30.22R
MEDFORD        SUNNY     53  37  53 S3        30.22R
MERRILL        SUNNY     52  34  49 SW3       30.23R
$$

WIZ029-030-035-036-043>047-221500-
CENTRAL WISCONSIN

CITY           SKY/WX    TMP DP  RH WIND       PRES   REMARKS
WAUSAU         SUNNY     53  32  44 SW5       30.21R
MOSINEE        SUNNY     52  32  46 S7        30.23R
MARSHFIELD     SUNNY     55  33  43 S8        30.22R
STEVENS POINT  SUNNY     53  31  42 SW7       30.23R
WAUPACA        SUNNY     56  28  33 CALM      30.23S
WAUTOMA        SUNNY     56  28  34 S5        30.24R
WISC RAPIDS    SUNNY     56  28  34 S5        30.24R
CAMP DOUGLAS   SUNNY     55  37  50 SE6       30.21R
$$

WIZ011>013-019>022-031-037>040-048>050-221500-
NORTHEAST WISCONSIN

CITY           SKY/WX    TMP DP  RH WIND       PRES   REMARKS
ANTIGO         SUNNY     51  33  49 SW8       30.22R
SHAWANO        SUNNY     55  23  29 E3        30.23R
OCONTO         SUNNY     52  26  37 W3        30.22S
STURGEON BAY   SUNNY     48  27  43 N6        30.26R
GREEN BAY      SUNNY     54  26  34 NE3       30.23R
MANITOWOC      SUNNY     53  28  38 CALM      30.23R
APPLETON       SUNNY     50  32  50 CALM      30.23R
CLINTONVILLE   SUNNY     52  32  46 CALM      30.23R
OSHKOSH        SUNNY     54  30  40 E7        30.22R
$$

WIZ032>034-041-042-053>061-221500-
SOUTHWEST WISCONSIN

CITY           SKY/WX    TMP DP  RH WIND       PRES   REMARKS
LA CROSSE      SUNNY     58  44  60 E3        30.19S
SPARTA         SUNNY     58  35  42 S5        30.21S
VIROQUA        SUNNY     57  37  46 SE8       30.20S
BOSCOBEL       SUNNY     59  39  47 VRB3      30.20F
PRAIRIE DU CHI SUNNY     56  43  63 CALM      30.19S
PLATTEVILLE    SUNNY     57  37  47 SE7       30.19S
$$

WIZ056-057-062-063-064-067-068-221500-
SOUTH CENTRAL WISCONSIN

CITY           SKY/WX    TMP DP  RH WIND       PRES   REMARKS
REEDSBURG      SUNNY     55  34  46 E3        30.21S
BARABOO/DELLS  SUNNY     55  32  41 SE3       30.21S
LONE ROCK      SUNNY     56  37  49 E7        30.21S
MINERAL POINT  SUNNY     57  32  38 SE8       30.20S
MADISON        SUNNY     56  31  38 SE7       30.21R
MIDDLETON      SUNNY     58  25  29 SE6       30.22R
WATERTOWN      SUNNY     55  35  46 E6        30.21S
MONROE         SUNNY     55  34  44 E7        30.20S
JANESVILLE     SUNNY     59  28  31 E12       30.19R
$$

WIZ051-052-058>065-066-070>072-221500-
SOUTHEAST WISCONSIN

CITY           SKY/WX    TMP DP  RH WIND       PRES   REMARKS
MILWAUKEE      SUNNY     52  34  50 NE10      30.23R
WAUKESHA       SUNNY     54  28  37 E3        30.23R
MILWAUKEE/TIMM SUNNY     54  19  26 NE7       30.23R
RACINE         SUNNY     52  35  52 N8        30.24R
BURLINGTON     SUNNY     55  29  37 E8        30.21R
KENOSHA        SUNNY     56  31  38 E9        30.22R
FOND DU LAC    SUNNY     56  28  34 E3        30.23R
SHEBOYGAN      SUNNY     52  29  41 CALM      30.23R
WEST BEND      SUNNY     54  27  35 E5        30.22R
JUNEAU         SUNNY     54  29  39 SE6       30.23R
$$

LSZ147-162-221500-
LAKE SUPERIOR

STATION/POSITION TIME  TEMP    WIND        PRES    WAVE
                       AIR SEA DIR/SP/G            HT/PER
                 (UTC) (F)     (DEG/KT/KT) (MB)    (FT/S)
W MID LAKE BUOY  1350   37 36   50/  8/  8   N/A     0
DEVILS ISLAND    1400   40      10/  4/  4   N/A
PORT WING        1300   43     360/  2/  3   N/A
SAXON HARBOR     1300   46        CALM       N/A
$$

LMZ867-665-643>646-221500-
LAKE MICHIGAN

STATION/POSITION TIME  TEMP    WIND        PRES    WAVE
                       AIR SEA DIR/SP/G            HT/PER
                 (UTC) (F)     (DEG/KT/KT) (MB)    (FT/S)
CHAMBERS ISLAND  1300   46      10/  6/  8   N/A
N MID LAKE BUOY  1350   38 36   40/  6/  6   N/A     1
NORTHPORT PIER   1300   45     350/  3/  4   N/A
SISTER BAY       1317   50     360/  9/ 11   N/A
KEWAUNEE LAKESHO 1400   48      90/  3/  6   N/A
SHEBOYGAN LAKESH 1400           10/  5/  6   N/A
PORT WASHINGTON  1300   51      30/  4/  6   N/A
ATWATER BUOY     1400   45 44   20/ 10/ 12   N/A
MILWAUKEE LAKESH 1300   47      30/ 11/ 13   N/A
S MID LAKE BUOY  1350   40 38  350/  8/  8   N/A     1
KENOSHA   LAKESH 1400   47      20/ 11/ 13   N/A
$$

TC  - TEMPERATURE IN CELSIUS
VSB - VISIBILITY IN STATUTE MILES
WCI - WIND CHILL INDEX
HX  - HEAT INDEX




USA.gov is the U.S. government's official web portal to all federal, state and local government web resources and services.